Swansboro, NC

10:28 AM EDT on September 22, 2017 (GMT -0400)
Bogue McAlf

Weather History for KNJM - January, 2014

Change the Weather History Date:

Friday, January 3, 2014

  Actual Average (KNKT) Record (KNKT)
Temperature  
Mean Temperature 39 °F -  
Max Temperature 52 °F 55 °F 73 °F (2000)
Min Temperature 26 °F 34 °F 19 °F (2001)
Degree Days  
Heating Degree Days 26    
Moisture  
Dew Point 21 °F    
Average Humidity 54    
Maximum Humidity 89    
Minimum Humidity 29    
Precipitation  
Precipitation 0.00 in - - ()
Sea Level Pressure  
Sea Level Pressure 30.12 in    
Wind  
Wind Speed 11 mph (NNW)    
Max Wind Speed 18 mph    
Max Gust Speed 30 mph    
Visibility 10 miles    
Events Rain    
Averages and records for this station are not official NWS values.
T = Trace of Precipitation, MM = Missing Value Source: NWS Daily Summary

Daily Weather History Graph

Daily Weather History Graph

Search for Another Location

Airport or City:

Trip Planner

Search our weather history database for the weather conditions in past years. The results will help you decide how hot, cold, wet, or windy it might be!

Date:

Astronomy

Jan. 03, 2014 Rise Set
Actual Time 7:15 AM EST 5:09 PM EST
Civil Twilight 6:47 AM EST 5:37 PM EST
Nautical Twilight 6:16 AM EST 6:09 PM EST
Astronomical Twilight 5:45 AM EST 6:39 PM EST
Moon 8:47 AM EST (1/3) 8:08 PM EST (1/3)
Length of Visible Light 10h 49m
Length of Day
9h 54m
Waxing Crescent, 8% of the Moon is Illuminated
Jan 3
Waxing Crescent
Jan 7
First Quarter
Jan 15
Full
Jan 24
Last Quarter
Jan 30
New

Hourly Weather History & Observations

Time (EST) Temp. Windchill Dew Point Humidity Pressure Visibility Wind Dir Wind Speed Gust Speed Precip Events Conditions
12:12 AM 52.0 °F - 48.9 °F 89% 29.60 in 3.0 mi West 10.4 mph 20.7 mph 0.01 in Rain Light Rain
12:53 AM 51.8 °F - 46.4 °F 82% 29.60 in 10.0 mi WNW 9.2 mph 21.9 mph 0.01 in   Overcast
1:24 AM 50.0 °F - 45.0 °F 83% 29.63 in 10.0 mi NW 13.8 mph 21.9 mph N/A   Mostly Cloudy
1:57 AM 48.9 °F - 44.1 °F 83% 29.66 in 10.0 mi NW 13.8 mph 24.2 mph N/A   Overcast
2:57 AM 46.9 °F - 37.9 °F 71% 29.71 in 10.0 mi NW 11.5 mph 21.9 mph 0.00 in   Overcast
3:57 AM 45.0 °F 37.9 °F 33.1 °F 63% 29.77 in 10.0 mi NW 16.1 mph 26.5 mph N/A   Overcast
4:57 AM 43.0 °F 36.4 °F 30.0 °F 60% 29.82 in 10.0 mi NW 12.7 mph 26.5 mph N/A   Overcast
5:57 AM 39.9 °F 31.1 °F 26.1 °F 58% 29.89 in 10.0 mi NW 17.3 mph 24.2 mph N/A   Overcast
6:57 AM 36.0 °F 26.3 °F 21.9 °F 57% 29.97 in 10.0 mi NW 16.1 mph 27.6 mph N/A   Mostly Cloudy
7:57 AM 33.1 °F 22.6 °F 17.1 °F 52% 30.05 in 10.0 mi NW 16.1 mph 28.8 mph N/A   Partly Cloudy
8:57 AM 33.1 °F 23.0 °F 15.1 °F 48% 30.12 in 10.0 mi NNW 15.0 mph 25.3 mph N/A   Scattered Clouds
9:57 AM 33.1 °F 21.9 °F 12.0 °F 42% 30.16 in 10.0 mi NNW 18.4 mph 29.9 mph N/A   Partly Cloudy
10:57 AM 35.1 °F 26.4 °F 12.0 °F 39% 30.20 in 10.0 mi NNW 12.7 mph 28.8 mph N/A   Clear
11:57 AM 35.1 °F 26.4 °F 12.0 °F 39% 30.20 in 10.0 mi North 12.7 mph 27.6 mph N/A   Clear
12:57 PM 37.9 °F 29.2 °F 12.0 °F 35% 30.23 in 10.0 mi North 15.0 mph 23.0 mph N/A   Clear
1:57 PM 37.9 °F 28.9 °F 8.1 °F 29% 30.26 in 10.0 mi NNE 16.1 mph 25.3 mph N/A   Clear
2:57 PM 37.9 °F 30.9 °F 10.0 °F 32% 30.28 in 10.0 mi NNW 10.4 mph 19.6 mph N/A   Clear
3:57 PM 37.0 °F 28.9 °F 9.0 °F 31% 30.32 in 10.0 mi North 12.7 mph 20.7 mph N/A   Clear
4:57 PM 34.0 °F 29.8 °F 10.0 °F 37% 30.36 in 10.0 mi North 4.6 mph - N/A   Clear
5:57 PM 30.9 °F 27.5 °F 12.0 °F 46% 30.40 in 10.0 mi NNW 3.5 mph - N/A   Clear
6:57 PM 30.0 °F - 12.9 °F 49% 30.43 in 10.0 mi Calm Calm - N/A   Clear
7:57 PM 28.9 °F 25.2 °F 14.0 °F 54% 30.46 in 10.0 mi NNW 3.5 mph - N/A   Clear
8:57 PM 28.0 °F - 14.0 °F 56% 30.49 in 10.0 mi Calm Calm - N/A   Clear
9:57 PM 27.0 °F 23.0 °F 14.0 °F 58% 30.48 in 10.0 mi NNE 3.5 mph - N/A   Clear
10:57 PM 26.1 °F - 14.0 °F 60% 30.49 in 10.0 mi Calm Calm - N/A   Clear
11:57 PM 26.1 °F 20.5 °F 14.0 °F 60% 30.49 in 10.0 mi NNE 4.6 mph - N/A   Clear